Location: Blairvadach
(56.2780°N, 6.9720°W)
Time: 18:25:11
(UTC+00:00)

Envisat - Pass Details

Date: 17 November 2019
Orbit: 764 x 766 km, 98.1° (Epoch: 10 December)

Event Time Altitude Azimuth Distance (km) Brightness Sun altitude
Rises 16:54:03 0° 128° (SE) 3,229 6.0 -5.4°
Reaches altitude 10° 16:56:33 10° 118° (ESE) 2,307 5.2 -5.7°
Maximum altitude 17:00:58 31° 58° (ENE) 1,330 3.7 -6.3°
Drops below altitude 10° 17:05:24 10° 358° (N) 2,318 5.3 -6.8°
Sets 17:07:55 0° 348° (NNW) 3,248 6.1 -7.2°
